User: anonymous   Login
Location: Arcueil
(48.7999°N, 2.3326°E)
Time: 13:11:46
(UTC+00:00)
Language:

DUCHIFAT 1 - Orbit

View from above orbital plane
View from above orbital plane
View from above satellite
View from above satellite

Ground track
Ground track

The orbit data is extracted from the following two-line orbital elements,

1 40021U 14033M   24169.89086117  .00011789  00000-0  78274-3 0  9997
2 40021  98.0897 153.7585 0015181  98.4402 261.8546 15.07301187544230
Epoch (UTC): 17 June 2024 21:22:50
Eccentricity: 0.0015181
inclination: 98.0897°
perigee height: 534 km
apogee height: 555 km
right ascension of ascending node: 153.7585°
argument of perigee: 98.4402°
revolutions per day: 15.07301187
mean anomaly at epoch: 261.8546°
orbit number at epoch: 54423

The dashed part of the orbit path shows where the satellite is in the earth's shadow,  

DLR